Weather History for CYYG - August, 2013

Change the Weather History Date:

Friday, August 9, 2013

  Actual Average Record
Temperature  
Mean Temperature 68 °F -  
Max Temperature 72 °F 70 °F 87 °F (1998)
Min Temperature 64 °F 54 °F 51 °F (2014)
Cooling Degree Days 3    
Growing Degree Days 18 (Base 50)    
Moisture  
Dew Point 65 °F    
Average Humidity 90    
Maximum Humidity 100    
Minimum Humidity 68    
Precipitation  
Precipitation 0.59 in 0.12 in - ()
Sea Level Pressure  
Sea Level Pressure 30.06 in    
Wind  
Wind Speed 11 mph ()    
Max Wind Speed 17 mph    
Max Gust Speed 28 mph    
Visibility 12.0 miles    
Events Rain , Thunderstorm    
Averages and records for this station are not official NWS values.
T = Trace of Precipitation, MM = Missing Value Source: Averaged Metar Reports

Daily Weather History Graph

Daily Weather History Graph

Search for Another Location

Airport or City:

Trip Planner

Search our weather history database for the weather conditions in past years. The results will help you decide how hot, cold, wet, or windy it might be!

Date:

Astronomy

Aug. 09, 2013 Rise Set
Actual Time 6:04 AM ADT 8:31 PM ADT
Civil Twilight 5:30 AM ADT 9:04 PM ADT
Nautical Twilight 4:48 AM ADT 9:46 PM ADT
Astronomical Twilight 4:00 AM ADT 10:34 PM ADT
Moon 8:59 AM ADT (8/9) 9:23 PM ADT (8/9)
Length of Visible Light 15h 34m
Length of Day
14h 26m
Waxing Crescent, 7% of the Moon is Illuminated
Aug 9
Waxing Crescent
Aug 14
First Quarter
Aug 20
Full
Aug 28
Last Quarter
Sep 5
New

Hourly Weather History & Observations

Time (ADT) Temp. Dew Point Humidity Pressure Visibility Wind Dir Wind Speed Gust Speed Precip Events Conditions
12:00 AM 66.2 °F 55.4 °F 68% 30.12 in 15.0 mi South 12.7 mph 19.6 mph N/A   Overcast
1:00 AM 66.2 °F 55.4 °F 68% 30.12 in 15.0 mi South 11.5 mph 18.4 mph N/A   Overcast
2:00 AM 66.2 °F 57.2 °F 73% 30.11 in 15.0 mi South 11.5 mph 18.4 mph N/A   Overcast
3:00 AM 66 °F 59 °F 72% 30.10 in 15 mi South 15.0 mph - -   Partly Cloudy
3:00 AM 66.2 °F 59.0 °F 78% 30.10 in 15.0 mi South 15.0 mph 21.9 mph N/A   Overcast
4:00 AM 66.2 °F 60.8 °F 83% 30.10 in 15.0 mi SSW 13.8 mph - N/A   Overcast
5:00 AM 66.2 °F 60.8 °F 83% 30.09 in 15.0 mi South 12.7 mph - N/A   Overcast
6:00 AM 66.2 °F 60.8 °F 83% 30.10 in 15.0 mi SSW 10.4 mph - N/A   Mostly Cloudy
6:15 AM 66.2 °F 62.6 °F 88% 30.10 in 15.0 mi South 9.2 mph - N/A Rain Light Rain Showers
7:00 AM 64.4 °F 62.6 °F 94% 30.10 in 15.0 mi South 8.1 mph - N/A Rain Light Rain Showers
7:37 AM 64.4 °F 64.4 °F 100% 30.10 in 15.0 mi South 8.1 mph - N/A Rain Light Rain Showers
8:00 AM 64.4 °F 64.4 °F 100% 30.10 in 15.0 mi South 9.2 mph - N/A Rain Light Rain Showers
8:29 AM 64.4 °F 64.4 °F 100% 30.11 in 15.0 mi South 6.9 mph - N/A Rain Light Rain Showers
9:00 AM 66 °F 64 °F 92% 30.11 in 15 mi South 9.2 mph - - Rain Light Rain Showers
9:00 AM 66.2 °F 64.4 °F 94% 30.10 in 15.0 mi South 10.4 mph - N/A   Overcast
10:00 AM 68.0 °F 66.2 °F 94% 30.09 in 15.0 mi South 8.1 mph - N/A   Overcast
10:21 AM 68.0 °F 66.2 °F 94% 30.10 in 15.0 mi South 9.2 mph - N/A   Overcast
11:00 AM 68.0 °F 66.2 °F 94% 30.09 in 15.0 mi SSE 10.4 mph - N/A   Overcast
11:45 AM 69.8 °F 66.2 °F 88% 30.08 in 15.0 mi South 12.7 mph - N/A   Overcast
12:00 PM 69.8 °F 66.2 °F 88% 30.08 in 15.0 mi South 10.4 mph - N/A   Overcast
12:21 PM 69.8 °F 66.2 °F 88% 30.08 in 15.0 mi South 13.8 mph - N/A   Overcast
1:00 PM 69.8 °F 66.2 °F 88% 30.08 in 15.0 mi South 11.5 mph - N/A   Overcast
2:00 PM 71.6 °F 68.0 °F 88% 30.06 in 15.0 mi South 11.5 mph - N/A   Overcast
3:00 PM 72 °F 67 °F 81% 30.05 in 15 mi South 15.0 mph - - Rain Light Rain Showers
3:00 PM 71.6 °F 68.0 °F 88% 30.05 in 15.0 mi South 17.3 mph 23.0 mph N/A Rain Light Rain Showers
4:00 PM 71.6 °F 68.0 °F 88% 30.05 in 15.0 mi South 11.5 mph - N/A Rain Light Rain Showers
5:00 PM 69.8 °F 68.0 °F 94% 30.03 in 15.0 mi South 11.5 mph 19.6 mph N/A Rain , Thunderstorm Light Thunderstorms and Rain
5:20 PM 69.8 °F 68.0 °F 94% 30.04 in 2.5 mi SSW 9.2 mph 17.3 mph N/A Rain , Thunderstorm Heavy Thunderstorms and Rain
5:38 PM 68.0 °F 66.2 °F 94% 30.04 in 5.0 mi WSW 8.1 mph - N/A Rain , Thunderstorm Light Thunderstorms and Rain
6:00 PM 68.0 °F 66.2 °F 94% 30.04 in 4.0 mi SSW 10.4 mph - N/A Rain Light Rain Showers
6:08 PM 68.0 °F 66.2 °F 94% 30.03 in 2.5 mi SSW 9.2 mph - N/A Rain Rain Showers
6:20 PM 68.0 °F 66.2 °F 94% 30.03 in 5.0 mi SSW 11.5 mph - N/A Rain Light Rain Showers
6:48 PM 68.0 °F 66.2 °F 94% 30.03 in 5.0 mi SSW 9.2 mph - N/A Rain Rain Showers
7:00 PM 68.0 °F 66.2 °F 94% 30.02 in 5.0 mi South 8.1 mph - N/A Rain Rain Showers
7:35 PM 68.0 °F 66.2 °F 94% 30.02 in 5.0 mi South 10.4 mph - N/A Rain Light Rain Showers
8:00 PM 68.0 °F 66.2 °F 94% 30.01 in 6.0 mi SSW 10.4 mph - N/A Rain Light Rain Showers
8:33 PM 68.0 °F 66.2 °F 94% 30.01 in 3.0 mi SSW 8.1 mph - N/A Rain Rain Showers
8:51 PM 68.0 °F 68.0 °F 100% 30.01 in 5.0 mi South 12.7 mph - N/A Rain Light Rain Showers
9:00 PM 69 °F 67 °F 93% 30.01 in 10 mi South 15.0 mph - - Rain Light Rain Showers
9:00 PM 68.0 °F 68.0 °F 100% 30.01 in 10.0 mi South 17.3 mph - N/A Rain Light Rain Showers
10:00 PM 68.0 °F 68.0 °F 100% 30.00 in 15.0 mi South 13.8 mph - N/A Rain Light Rain Showers
10:21 PM 68.0 °F 66.2 °F 94% 29.99 in 15.0 mi South 15.0 mph 21.9 mph N/A   Overcast
10:31 PM 68.0 °F 66.2 °F 94% 29.99 in 8.0 mi South 13.8 mph 20.7 mph N/A Rain Heavy Rain Showers
10:35 PM 68.0 °F 66.2 °F 94% 29.98 in 15.0 mi South 15.0 mph 21.9 mph N/A Rain Light Rain Showers
11:00 PM 68.0 °F 66.2 °F 94% 29.97 in 15.0 mi South 15.0 mph 27.6 mph N/A Rain Light Rain Showers